Chippewa, MI

3:09 AM EST on December 08, 2019 (GMT -0500)
Chippewa County International

Weather History for KCIU - October, 2019

Change the Weather History Date:

Saturday, October 19, 2019

  Actual Average Record
Temperature  
Mean Temperature 46 °F -  
Max Temperature 57 °F 51 °F 65 °F (1979)
Min Temperature 37 °F 33 °F 17 °F (1989)
Degree Days  
Heating Degree Days 19    
Moisture  
Dew Point 42 °F    
Average Humidity 85    
Maximum Humidity 100    
Minimum Humidity 62    
Precipitation  
Precipitation 0.00 in - - ()
Sea Level Pressure  
Sea Level Pressure 29.88 in    
Wind  
Wind Speed 10 mph ()    
Max Wind Speed 23 mph    
Max Gust Speed 24 mph    
Visibility 10.0 miles    
Events      
Averages and records for this station are not official NWS values.
T = Trace of Precipitation, MM = Missing Value Source: Averaged Metar Reports

Daily Weather History Graph

Daily Weather History Graph

Search for Another Location

Airport or City:

Astronomy

Oct. 19, 2019 Rise Set
Actual Time 8:00 AM EDT 6:44 PM EDT
Civil Twilight 7:29 AM EDT 7:15 PM EDT
Nautical Twilight 6:54 AM EDT 7:49 PM EDT
Astronomical Twilight 6:20 AM EDT 8:24 PM EDT
Moon 10:38 PM EDT (10/19) 1:46 PM EDT (10/19)
Length of Visible Light 11h 45m
Length of Day
10h 44m
Waning Gibbous, 70% of the Moon is Illuminated
Oct 19
Waning Gibbous
Oct 21
Last Quarter
Oct 27
New
Nov 4
First Quarter
Nov 12
Full

Hourly Weather History & Observations

Time (EDT) Temp. Windchill Dew Point Humidity Pressure Visibility Wind Dir Wind Speed Gust Speed Precip Events Conditions
12:56 AM 39.9 °F 33.4 °F 39.0 °F 97% 29.98 in 10.0 mi SE 10.4 mph - N/A   Clear
1:56 AM 39.0 °F 33.4 °F 37.9 °F 96% 29.98 in 10.0 mi SE 8.1 mph - N/A   Clear
2:56 AM 37.9 °F 32.1 °F 37.9 °F 100% 29.97 in 10.0 mi SE 8.1 mph - N/A   Clear
3:56 AM 39.0 °F 32.8 °F 37.9 °F 96% 29.96 in 10.0 mi SE 9.2 mph - N/A   Clear
4:56 AM 37.9 °F 32.1 °F 37.0 °F 97% 29.94 in 10.0 mi SE 8.1 mph - N/A   Clear
5:56 AM 37.9 °F 32.1 °F 37.0 °F 97% 29.95 in 10.0 mi SE 8.1 mph - N/A   Clear
6:56 AM 39.0 °F 32.8 °F 37.9 °F 96% 29.94 in 10.0 mi SE 9.2 mph - N/A   Clear
7:56 AM 41.0 °F 34.3 °F 39.0 °F 93% 29.93 in 10.0 mi SE 11.5 mph - N/A   Clear
8:56 AM 43.0 °F 37.2 °F 39.9 °F 89% 29.93 in 10.0 mi SE 10.4 mph - N/A   Clear
9:56 AM 45.0 °F 39.7 °F 42.1 °F 90% 29.92 in 10.0 mi ESE 10.4 mph - N/A   Clear
10:56 AM 48.0 °F - 42.1 °F 80% 29.91 in 10.0 mi SE 12.7 mph - N/A   Clear
11:56 AM 53.1 °F - 42.1 °F 66% 29.88 in 10.0 mi SSE 16.1 mph - N/A   Clear
12:56 PM 53.1 °F - 41.0 °F 64% 29.88 in 10.0 mi SSE 16.1 mph 21.9 mph N/A   Clear
1:56 PM 54.0 °F - 43.0 °F 66% 29.86 in 10.0 mi SSE 18.4 mph 24.2 mph N/A   Clear
2:56 PM 55.0 °F - 44.1 °F 67% 29.82 in 10.0 mi SE 23.0 mph - N/A   Clear
3:56 PM 55.9 °F - 43.0 °F 62% 29.81 in 10.0 mi SSE 21.9 mph - N/A   Clear
4:56 PM 55.0 °F - 43.0 °F 64% 29.81 in 10.0 mi SE 19.6 mph - N/A   Clear
6:56 PM 50.0 °F - 45.0 °F 83% 29.81 in 10.0 mi SE 17.3 mph - N/A   Clear
7:56 PM 48.9 °F - 46.0 °F 90% 29.80 in 10.0 mi SE 15.0 mph - N/A   Clear
8:56 PM 48.9 °F - 46.0 °F 90% 29.80 in 10.0 mi SE 12.7 mph - N/A   Clear
9:56 PM 48.9 °F - 46.0 °F 90% 29.79 in 10.0 mi SE 11.5 mph - N/A   Clear
10:56 PM 46.9 °F - 45.0 °F 93% 29.79 in 10.0 mi SSE 9.2 mph - N/A   Clear
11:56 PM 46.9 °F - 45.0 °F 93% 29.79 in 10.0 mi SSE 8.1 mph - N/A   Clear